Location: Gälforsberget
(66.6500°N, 22.4167°E)
Time: 05:52:08
(UTC+00:00)

Cosmos 2366 rocket - Pass Details

Date: 11 April 2026
Orbit: 954 x 996 km, 82.9° (Epoch: 10 May)

Event Time Altitude Azimuth Distance (km) Brightness Sun altitude
Rises 19:42:40 0° 190° (S) 3,645 6.6 -8.9°
Reaches altitude 10° 19:45:10 10° 189° (S) 2,697 6.0 -9.0°
Maximum altitude 19:51:19 81° 104° (ESE) 977 4.0 -9.4°
Drops below altitude 10° 19:57:30 10° 18° (NNE) 2,699 6.8 -9.8°
Sets 20:00:00 0° 18° (NNE) 3,648 7.5 -10.0°
